Joplin, MO

4:04 AM CST on January 20, 2017 (GMT -0600)
Joplin Regional

Weather History for KJLN - January, 2014

Change the Weather History Date:

Friday, January 17, 2014

  Actual Average Record
Temperature  
Mean Temperature 28 °F 35 °F  
Max Temperature 36 °F 45 °F 68 °F (1952)
Min Temperature 20 °F 25 °F -7 °F (1978)
Degree Days  
Heating Degree Days 37 30  
Month to date heating degree days 582 510  
Since 1 July heating degree days 2452 2127  
Cooling Degree Days 0 0  
Month to date cooling degree days 0 0  
Year to date cooling degree days 0 0  
Moisture  
Dew Point 5 °F    
Average Humidity 41    
Maximum Humidity 60    
Minimum Humidity 22    
Precipitation  
Precipitation 0.00 in 0.06 in 1.47 in (2004)
Month to date precipitation 0.57 1.13  
Year to date precipitation 0.57 1.13  
Sea Level Pressure  
Sea Level Pressure 30.18 in    
Wind  
Wind Speed 13 mph (West)    
Max Wind Speed 25 mph    
Max Gust Speed 32 mph    
Visibility 10 miles    
Events      
T = Trace of Precipitation, MM = Missing Value Source: NWS Daily Summary

Daily Weather History Graph

Daily Weather History Graph

Search for Another Location

Airport or City:

Trip Planner

Search our weather history database for the weather conditions in past years. The results will help you decide how hot, cold, wet, or windy it might be!

Date:

Astronomy

Jan. 17, 2014 Rise Set
Actual Time 7:29 AM CST 5:26 PM CST
Civil Twilight 7:01 AM CST 5:54 PM CST
Nautical Twilight 6:29 AM CST 6:26 PM CST
Astronomical Twilight 5:58 AM CST 6:58 PM CST
Moon 7:10 PM CST (1/17) 8:01 AM CST (1/17)
Length of Visible Light 10h 53m
Length of Day
9h 56m
Full, 98% of the Moon is Illuminated
Jan 17
Full
Jan 23
Last Quarter
Jan 30
New
Feb 6
First Quarter
Feb 14
Full

Hourly Weather History & Observations

Time (CST) Temp. Windchill Dew Point Humidity Pressure Visibility Wind Dir Wind Speed Gust Speed Precip Events Conditions
12:53 AM 28.0 °F 14.3 °F 7.0 °F 41% 30.12 in 10.0 mi NW 21.9 mph 31.1 mph N/A   Clear
1:53 AM 27.0 °F 13.5 °F 9.0 °F 47% 30.12 in 10.0 mi WNW 19.6 mph 25.3 mph N/A   Clear
2:53 AM 26.1 °F 13.1 °F 9.0 °F 49% 30.14 in 10.0 mi NW 17.3 mph 31.1 mph N/A   Clear
3:53 AM 24.1 °F 13.1 °F 10.0 °F 55% 30.14 in 10.0 mi West 11.5 mph - N/A   Clear
4:53 AM 24.1 °F 9.8 °F 3.0 °F 40% 30.17 in 10.0 mi NW 19.6 mph 31.1 mph N/A   Clear
5:53 AM 21.0 °F 9.9 °F 5.0 °F 50% 30.17 in 10.0 mi WNW 10.4 mph - N/A   Clear
6:53 AM 21.9 °F 8.2 °F 3.0 °F 44% 30.18 in 10.0 mi WNW 16.1 mph 27.6 mph N/A   Clear
7:53 AM 21.0 °F 8.1 °F 3.9 °F 48% 30.19 in 10.0 mi WNW 13.8 mph - N/A   Clear
8:53 AM 24.1 °F 10.6 °F 3.9 °F 42% 30.22 in 10.0 mi NW 17.3 mph 29.9 mph N/A   Clear
9:53 AM 26.1 °F 11.3 °F 1.9 °F 35% 30.24 in 10.0 mi NW 23.0 mph 29.9 mph N/A   Clear
10:53 AM 28.9 °F 16.5 °F 1.9 °F 32% 30.25 in 10.0 mi WNW 18.4 mph 27.6 mph N/A   Clear
11:53 AM 30.9 °F 18.7 °F -2.9 °F 23% 30.23 in 10.0 mi NW 19.6 mph 26.5 mph N/A   Clear
12:53 PM 33.1 °F 22.2 °F 1.0 °F 26% 30.20 in 10.0 mi West 17.3 mph 25.3 mph N/A   Clear
1:53 PM 34.0 °F 23.4 °F 1.9 °F 26% 30.19 in 10.0 mi WNW 17.3 mph - N/A   Clear
2:53 PM 35.1 °F 26.9 °F -0.0 °F 23% 30.20 in 10.0 mi WNW 11.5 mph 23.0 mph N/A   Clear
3:53 PM 35.1 °F 25.2 °F -0.0 °F 23% 30.21 in 10.0 mi WNW 16.1 mph - N/A   Clear
4:53 PM 34.0 °F 26.0 °F 1.0 °F 25% 30.20 in 10.0 mi WNW 10.4 mph - N/A   Clear
5:53 PM 30.0 °F 24.1 °F 3.0 °F 32% 30.20 in 10.0 mi West 5.8 mph - N/A   Clear
6:53 PM 28.0 °F - 5.0 °F 38% 30.19 in 10.0 mi Calm Calm - N/A   Clear
7:53 PM 27.0 °F 21.6 °F 7.0 °F 43% 30.18 in 10.0 mi SSW 4.6 mph - N/A   Clear
8:53 PM 24.1 °F 17.0 °F 9.0 °F 53% 30.17 in 10.0 mi South 5.8 mph - N/A   Clear
9:53 PM 25.0 °F 18.1 °F 9.0 °F 51% 30.16 in 10.0 mi South 5.8 mph - N/A   Clear
10:53 PM 24.1 °F 15.2 °F 12.0 °F 60% 30.14 in 10.0 mi South 8.1 mph - N/A   Clear
11:53 PM 25.0 °F 15.5 °F 12.0 °F 58% 30.10 in 10.0 mi South 9.2 mph - N/A   Partly Cloudy